Theta_e
302 301 300 300 300 300 301 302 304 305 304 304 304 306 307 308 309 308 306 306 306 304 301 300 299 295 292 290 290 289 289 289 288 288 288 288 288 288 288 288 288 288 287 287 286 286 285 285 285 285 285 285 285 285 284 284 284 284 284 283 283 283 283 284 285 285 285 284 283 282 282 282 281 281 281 280 280 280 280 280 280 280 281 281 281
301 301 301 300 300 301 301 302 303 303 302 302 303 303 304 306 306 305 304 304 304 303 300 298 295 292 290 289 289 289 289 289 288 288 288 288 288 288 288 288 287 287 287 286 286 285 285 285 285 285 284 284 284 284 284 284 284 284 284 283 283 283 283 283 283 284 284 284 283 282 281 281 281 280 280 280 280 280 280 280 280 280 281 281 280
301 301 300 300 300 301 301 301 302 301 300 300 301 301 302 304 304 302 301 302 302 301 300 297 293 290 289 289 289 289 289 288 288 288 288 288 288 288 288 287 287 287 286 286 285 285 285 284 284 284 284 284 284 284 284 284 284 283 283 283 283 282 282 282 282 283 283 283 282 281 281 281 280 280 280 280 280 280 280 280 280 280 280 280 280
300 300 300 299 299 299 299 299 299 299 299 299 299 299 300 302 302 300 300 300 299 297 296 294 291 289 288 289 289 288 288 288 288 288 288 288 288 288 287 287 287 286 286 285 285 285 285 284 284 284 284 284 284 284 284 284 283 283 283 283 282 282 282 282 281 281 282 282 282 281 280 280 280 280 280 280 280 280 280 279 279 280 279 279 279
300 300 299 298 297 297 298 297 297 298 298 298 298 298 300 301 300 299 299 297 295 294 293 291 289 288 288 288 288 288 288 288 288 288 288 287 287 287 287 286 286 286 286 285 285 285 285 285 285 285 285 285 284 284 284 284 283 283 283 282 282 282 282 282 281 280 280 281 281 281 280 280 280 280 280 280 279 279 279 279 279 279 278 278 279
300 299 298 297 297 297 297 296 296 297 297 297 297 298 299 299 297 297 298 296 293 292 292 290 288 288 288 288 288 288 288 288 288 288 287 287 287 287 286 286 286 286 285 285 285 285 284 284 285 285 285 285 285 284 284 284 283 283 282 282 282 282 281 281 280 280 279 280 280 280 280 279 279 280 280 280 279 279 279 279 278 278 278 278 278
299 298 297 297 297 297 296 296 297 297 297 297 297 297 298 297 295 295 297 296 293 291 291 290 288 288 288 288 288 288 288 287 287 287 287 287 287 286 286 286 285 285 285 285 284 284 284 284 284 285 285 285 285 284 284 283 283 282 282 282 282 281 281 280 280 279 279 279 279 280 280 279 279 279 279 279 278 278 278 278 278 279 278 278 278
298 297 297 296 297 297 297 297 297 297 297 297 297 296 296 296 295 294 294 294 293 291 291 290 289 288 287 287 287 287 287 287 287 287 287 287 287 286 286 285 285 285 285 284 284 284 284 284 285 286 286 286 285 284 283 283 282 282 282 281 281 281 280 280 279 279 279 279 280 280 280 279 279 279 279 278 278 278 278 278 278 279 278 278 278
297 296 296 296 296 296 297 298 298 297 296 295 294 294 295 295 294 293 293 293 292 290 290 289 288 287 287 287 287 287 287 287 287 287 287 287 286 286 286 285 285 285 284 284 284 284 284 285 286 287 287 286 285 284 284 284 283 283 282 281 281 281 280 280 279 279 279 280 280 280 280 279 279 279 279 279 279 279 279 279 278 278 278 278 278
297 296 295 295 295 295 295 296 296 296 295 294 293 293 293 293 292 292 292 291 289 287 287 287 286 286 287 287 286 286 286 287 287 287 287 287 286 286 286 285 285 284 284 284 284 285 285 286 287 288 287 286 286 286 286 286 286 285 283 282 281 280 280 279 279 279 279 279 280 280 280 280 280 279 279 279 279 279 279 278 278 278 278 278 278
296 295 295 295 295 295 294 294 294 293 293 292 292 292 291 290 290 290 289 287 286 286 286 286 286 286 286 286 286 286 286 287 287 287 287 287 286 286 286 285 285 284 284 284 285 286 286 286 287 287 286 286 287 288 288 288 287 287 285 283 282 281 280 279 279 279 279 279 279 279 279 279 280 280 279 279 279 278 278 278 278 278 278 278 279
296 295 295 294 294 294 293 293 292 292 292 291 291 291 290 289 288 287 287 286 286 285 285 286 286 285 285 286 286 286 286 286 286 286 286 286 286 286 285 285 284 284 284 284 286 287 288 288 287 287 286 285 286 288 289 288 288 287 286 285 284 283 281 280 279 279 279 279 279 279 279 279 280 280 279 279 279 278 278 278 278 278 278 278 278
295 295 294 294 293 293 292 292 291 291 290 290 290 290 289 288 287 286 286 286 286 285 285 285 284 284 284 285 285 285 286 286 286 285 285 285 285 285 285 284 284 284 284 285 287 289 289 289 288 287 286 284 285 286 288 289 288 288 287 286 285 284 283 281 280 279 279 279 278 278 280 280 279 280 280 279 278 279 279 279 278 278 278 278 278
294 294 294 293 293 292 292 291 291 290 290 289 288 288 287 287 287 287 286 285 285 284 284 284 284 284 284 284 284 285 285 286 286 285 285 285 285 285 284 284 285 285 285 286 287 289 290 290 289 288 287 285 283 284 285 287 287 287 287 286 285 285 284 282 281 281 280 279 278 280 281 281 280 280 280 279 278 278 278 279 278 278 278 277 277
294 294 293 293 292 292 291 291 290 289 289 288 287 286 286 286 286 285 285 285 285 284 284 283 284 284 283 283 284 284 285 285 285 285 285 285 285 284 284 285 285 285 285 286 287 289 291 291 290 289 288 286 284 284 284 285 285 285 285 285 285 284 283 282 282 282 281 280 280 281 282 282 281 281 280 279 278 278 278 278 278 277 277 276 276
293 293 293 292 292 291 291 290 290 289 288 288 287 286 286 285 285 285 284 285 285 284 283 283 283 283 283 282 283 284 284 284 285 285 285 284 284 284 284 285 285 285 285 286 286 289 291 291 291 290 290 289 287 286 286 285 284 283 283 283 283 283 283 283 283 282 281 281 281 281 281 281 280 280 279 279 278 278 278 278 277 276 276 275 275
292 292 292 292 291 291 291 290 289 289 288 287 287 286 286 285 285 285 284 284 284 284 283 283 282 282 282 282 282 283 283 283 283 284 284 283 283 283 284 285 285 285 285 285 286 289 291 291 290 290 290 290 289 288 287 285 283 282 282 282 282 282 283 283 283 282 282 282 281 280 280 280 280 280 280 279 279 279 278 277 277 276 275 275 275
292 291 291 291 291 291 291 290 289 289 288 287 287 286 286 285 285 285 284 284 284 283 283 282 282 282 282 282 282 282 282 282 282 282 282 282 282 283 284 285 285 285 286 286 287 289 290 291 290 290 290 289 289 289 287 284 283 282 281 281 281 281 282 282 281 282 282 281 280 279 279 279 280 280 280 280 280 280 279 278 277 276 275 275 276
291 291 291 291 291 291 290 290 289 289 288 287 287 286 286 285 285 285 284 284 284 283 283 283 282 282 282 282 282 282 282 282 282 282 282 282 282 283 284 284 285 285 286 287 288 289 290 290 290 289 288 288 288 288 287 284 283 282 281 280 280 281 281 281 280 280 280 279 279 278 278 278 278 279 280 280 280 281 280 279 279 277 275 276 276
291 291 291 291 290 290 290 289 289 289 288 287 287 286 286 285 284 284 284 284 284 284 283 283 283 283 282 282 282 282 283 283 282 282 283 283 283 284 283 284 285 286 288 288 288 288 289 289 288 287 287 287 287 286 285 284 283 282 281 280 280 281 281 281 280 279 279 278 278 277 277 277 277 277 277 278 279 279 279 280 279 278 277 276 276
291 291 290 290 290 290 289 289 289 288 288 287 286 286 286 285 285 284 284 284 284 283 283 283 283 283 283 283 282 282 282 283 283 284 284 284 284 284 284 284 286 287 288 288 287 287 287 287 287 287 286 285 285 284 284 283 282 282 281 280 280 281 281 280 279 279 279 278 278 277 277 277 276 276 276 276 277 277 278 278 278 278 278 278 276
290 290 290 290 289 289 289 289 288 288 288 287 287 286 285 285 285 284 284 284 283 283 283 283 283 283 283 283 283 283 283 284 284 285 285 284 284 283 284 285 287 287 287 287 286 286 286 286 285 285 284 283 283 282 282 282 281 281 281 281 281 281 281 280 280 280 279 279 278 278 278 277 277 277 277 277 277 277 277 277 277 277 277 278 277
290 290 290 289 289 288 288 288 288 288 287 287 287 286 285 284 284 284 284 284 283 283 283 283 283 283 282 283 283 283 283 284 284 284 283 283 283 283 285 286 287 287 286 285 285 285 284 284 283 283 282 282 281 281 281 281 281 281 281 281 282 282 282 282 281 281 281 280 279 278 279 278 277 277 277 277 277 277 277 277 276 276 276 277 277
290 289 289 288 288 287 287 287 287 287 287 286 286 285 285 284 284 284 284 284 283 283 282 282 282 282 281 282 282 282 282 282 283 283 283 284 284 285 286 286 285 285 284 283 283 283 283 282 282 281 281 281 281 281 281 281 281 281 281 281 282 281 281 282 281 281 282 281 280 279 279 279 278 278 278 278 277 277 277 276 275 275 275 275 276
289 288 288 288 287 287 287 287 287 287 286 286 286 285 285 284 284 284 284 284 283 282 282 282 281 281 281 281 282 282 283 283 284 284 285 285 285 285 284 283 282 282 282 283 283 282 282 282 281 281 281 281 281 281 281 281 281 281 281 281 281 281 281 281 281 281 281 281 281 281 280 279 279 279 278 278 277 276 276 275 275 274 275 274 274
288 288 287 287 287 286 286 286 286 286 286 286 286 286 285 285 284 284 283 283 283 283 282 282 282 282 282 282 283 284 284 284 284 284 283 283 282 282 282 281 280 280 280 281 281 281 281 280 280 280 280 279 279 279 279 279 279 279 279 279 279 280 280 280 280 280 280 280 280 280 280 280 279 279 279 278 277 276 275 275 274 274 274 273 273
287 287 287 286 286 286 286 285 285 285 285 285 285 286 286 285 285 284 283 283 283 283 283 283 283 283 283 283 283 283 283 283 282 282 281 281 281 281 280 280 280 279 279 279 279 279 279 279 278 278 278 278 278 278 278 278 278 278 278 278 278 278 279 279 279 279 279 280 280 279 279 279 279 279 278 277 277 276 275 274 273 273 273 272 271
287 287 287 286 286 286 286 286 285 285 285 285 285 285 285 285 285 285 285 284 284 284 284 284 284 284 283 283 282 282 281 281 281 281 281 280 280 280 280 279 280 279 279 279 279 279 279 279 278 279 278 278 278 278 278 278 277 277 277 277 277 277 277 277 278 278 278 278 278 278 278 278 278 278 277 276 276 275 274 274 273 272 271 270 269
287 287 287 286 286 286 286 286 285 285 285 284 285 285 285 286 286 286 286 286 286 285 285 284 284 284 283 282 282 281 280 280 281 280 280 280 280 280 280 279 279 279 279 279 279 279 279 279 278 278 278 278 278 278 278 278 277 277 277 277 277 277 277 277 277 277 277 277 277 277 277 277 277 277 276 276 275 273 273 272 271 271 270 269 268
287 286 286 286 286 285 285 285 285 285 285 284 284 284 285 285 285 285 285 284 284 283 283 283 283 282 282 282 281 281 280 280 280 280 280 280 280 279 279 279 279 279 279 279 279 279 279 278 278 278 278 278 278 277 278 278 278 277 277 277 277 277 277 277 277 277 277 276 276 276 276 276 276 276 275 275 274 272 272 271 270 269 269 268 268
286 286 286 286 286 286 286 285 285 285 285 285 284 283 282 282 282 282 282 282 282 282 282 282 281 281 281 281 280 280 280 280 280 280 279 279 279 279 280 280 280 280 280 280 280 279 279 279 279 279 278 278 278 278 277 277 278 278 277 277 277 277 277 277 277 276 276 276 275 275 275 275 275 274 274 273 273 272 271 270 269 269 268 267 267
288 287 287 287 287 286 286 286 286 285 285 284 284 283 282 280 280 280 280 280 280 280 280 280 280 280 280 280 280 280 280 279 279 279 279 279 279 280 280 280 280 280 280 280 280 280 280 279 279 279 278 278 278 277 277 277 277 277 277 277 277 277 277 276 276 275 275 275 275 275 274 274 274 273 273 272 272 271 270 269 268 268 267 267 267
289 288 288 287 287 286 286 286 285 285 284 283 283 283 282 280 279 279 279 279 279 279 279 279 279 279 279 279 279 278 278 278 278 278 278 278 278 278 279 279 279 279 279 279 279 279 279 279 278 277 277 276 276 275 275 275 275 275 275 275 275 275 275 275 274 274 274 274 274 274 273 273 273 272 272 271 271 270 269 269 268 267 267 266 266
289 288 288 287 287 286 286 285 285 284 284 283 283 283 282 281 280 278 277 277 277 277 277 277 277 277 277 277 277 277 277 277 277 277 276 276 277 277 277 277 277 278 277 278 278 277 277 276 276 275 274 274 274 273 273 273 273 272 272 273 273 272 272 272 272 273 273 273 273 272 272 272 271 271 271 270 270 269 269 268 268 267 267 267 267
288 287 287 286 286 286 285 285 285 284 284 283 283 282 282 282 281 280 278 277 277 276 276 275 275 276 276 275 275 275 275 276 276 276 276 276 276 276 275 275 276 276 275 275 275 275 274 274 273 273 272 272 271 271 271 271 270 270 270 270 270 270 270 270 270 271 271 271 271 271 271 270 270 270 269 269 269 269 268 268 268 267 267 267 267
287 286 286 286 286 285 285 284 284 284 284 283 282 282 282 281 281 280 280 279 278 276 275 274 274 274 274 274 274 274 274 275 275 275 275 275 275 274 274 274 274 274 273 273 273 273 272 272 271 270 270 270 269 269 269 269 268 268 268 268 268 268 268 268 268 268 268 268 269 269 269 268 268 268 268 268 268 268 267 267 267 267 266 266 266
287 286 286 285 285 285 284 284 283 283 283 282 281 281 281 280 280 279 278 278 277 275 274 273 273 273 273 273 273 273 273 274 274 274 274 274 274 273 273 273 272 272 271 271 271 271 271 270 269 269 269 268 268 267 267 267 266 266 266 266 265 265 265 265 266 266 265 266 266 267 266 266 267 266 266 266 266 266 266 266 266 266 265 265 265
285 285 284 284 284 283 283 282 281 281 281 280 280 280 279 278 278 278 277 276 275 275 274 273 272 273 272 272 272 272 272 272 272 272 272 272 272 272 272 271 271 270 270 270 269 269 269 269 268 268 268 267 267 266 266 265 265 264 264 264 264 264 264 264 264 263 263 264 264 264 264 264 265 265 265 265 265 265 265 265 264 264 264 264 264
282 282 282 282 282 281 281 280 280 280 279 279 278 278 278 277 277 276 276 275 274 274 273 272 272 272 273 273 272 272 272 271 271 271 271 271 271 271 270 270 269 269 269 268 268 267 267 267 267 266 266 266 265 265 264 264 264 263 263 263 263 263 263 263 263 262 262 262 262 262 263 263 263 263 263 263 263 263 263 263 263 263 263 263 263
281 281 280 280 280 280 280 280 279 279 279 278 278 277 277 277 276 276 275 275 274 273 273 272 271 271 272 272 272 271 271 270 270 270 270 270 269 269 269 268 268 267 267 266 266 266 265 265 265 265 265 264 264 264 264 263 263 263 263 263 263 263 263 262 262 262 262 262 262 262 262 262 262 262 262 262 262 262 262 262 262 262 262 262 262
281 280 279 279 280 279 279 278 278 278 278 277 277 277 276 276 276 275 275 275 274 273 272 271 270 270 270 269 269 269 269 269 269 269 269 268 268 268 267 267 266 266 266 265 265 265 265 265 264 264 264 264 264 263 263 263 263 263 263 263 263 262 262 262 262 262 261 262 262 262 262 262 261 261 261 261 261 261 261 261 261 261 261 260 260
281 280 279 278 278 278 278 277 277 276 276 276 276 276 276 275 275 275 274 274 273 272 271 270 269 269 268 267 267 268 268 268 268 268 268 268 267 267 267 266 266 265 265 265 265 264 264 264 264 264 264 264 263 263 263 263 263 263 263 263 263 262 262 262 262 262 261 261 262 261 261 261 261 261 261 261 260 260 260 260 260 260 260 260 260
280 279 278 277 277 277 277 277 276 275 275 275 275 275 275 274 274 273 272 272 271 271 270 269 269 269 268 268 268 268 268 267 268 267 267 267 267 266 266 266 266 265 265 264 264 264 264 264 264 264 264 264 263 263 263 263 263 263 263 263 262 262 262 262 262 262 261 261 261 261 261 261 261 261 261 260 260 260 260 259 259 259 259 259 259
279 278 277 276 276 276 276 276 275 275 274 274 274 273 273 272 272 271 271 270 270 269 269 268 268 268 267 267 267 267 267 267 267 267 266 266 266 266 266 265 265 265 264 264 264 264 264 264 264 264 264 263 263 263 263 263 263 263 263 262 262 262 262 262 262 261 261 261 261 261 261 261 261 260 260 260 260 260 259 259 259 259 259 258 258
278 278 277 276 275 275 275 274 274 274 273 273 272 271 270 270 270 270 269 269 269 268 268 267 267 267 267 267 267 267 266 266 266 265 265 265 265 265 265 265 264 264 264 264 264 264 264 264 264 264 264 263 263 263 263 263 263 262 262 262 262 262 262 262 261 261 261 261 261 261 261 261 261 261 260 260 259 259 259 259 259 258 258 258 258
277 277 276 275 275 274 273 273 272 272 272 271 271 269 269 268 268 268 268 268 267 267 267 267 267 266 266 266 266 266 266 265 265 265 265 264 264 264 264 264 264 264 264 264 263 263 264 264 264 264 263 263 263 262 262 262 262 262 262 262 262 262 262 262 261 261 261 261 261 261 261 261 261 261 260 260 259 259 259 258 258 258 258 258 257
276 275 275 274 274 273 272 271 271 270 270 269 269 268 268 267 267 267 267 267 267 266 266 266 266 266 266 266 265 265 265 264 264 264 264 264 264 264 264 264 264 264 264 263 263 263 263 263 263 263 263 263 263 262 262 262 262 262 262 262 262 262 262 262 262 261 261 261 261 260 260 260 260 260 260 260 259 259 258 258 258 258 258 257 257
274 274 273 273 272 271 270 269 269 268 268 267 267 267 267 267 267 266 266 266 266 266 266 266 265 265 265 265 264 264 264 264 264 264 264 264 264 263 263 264 264 264 264 263 263 263 263 263 263 263 263 262 262 262 262 262 262 262 262 263 263 263 263 262 262 262 261 261 261 260 260 260 260 259 259 259 259 259 258 258 257 257 257 257 257
272 271 271 270 270 269 269 268 268 267 267 267 266 266 266 266 266 266 266 265 265 265 265 265 265 265 264 264 264 264 264 264 264 264 264 264 263 263 263 263 263 263 263 263 263 263 263 263 263 263 262 262 262 262 262 263 263 263 263 263 263 263 263 263 262 262 262 261 261 261 260 260 259 259 259 259 259 258 258 258 258 257 257 257 256
269 269 269 268 268 268 267 267 267 267 266 266 266 266 266 265 265 265 265 265 265 265 264 264 264 264 264 263 263 263 263 264 264 264 264 264 263 263 263 263 263 263 263 263 263 263 263 263 262 262 262 262 262 262 263 263 263 264 264 264 263 263 263 263 262 262 262 261 261 260 260 259 259 259 259 258 258 258 258 258 258 257 257 256 256
268 268 267 267 267 267 266 266 266 266 266 265 265 265 265 265 265 265 265 264 264 264 264 264 263 263 263 263 263 263 263 263 263 263 263 263 263 263 263 263 263 263 263 263 263 263 263 262 262 262 262 262 262 262 263 263 264 264 264 263 263 263 263 262 262 262 261 260 260 260 259 259 259 259 258 258 258 258 258 258 258 258 257 257 256
Wind_Speed
25 29 32 33 34 34 35 36 36 35 34 34 34 34 35 35 33 33 35 37 37 37 37 37 38 38 38 37 36 35 34 33 32 31 30 28 26 25 24 23 23 22 21 20 19 19 19 19 17 16 15 13 12 11 11 11 11 11 11 11 12 12 10 7 7 7 7 9 11 13 15 16 17 18 19 18 18 19 20 19 18 18 18 18 18
28 33 34 34 35 36 36 37 36 35 34 33 34 34 34 33 32 32 34 36 36 36 36 37 38 38 38 38 36 35 34 33 32 30 29 27 25 24 23 23 23 22 21 21 21 20 19 18 16 15 14 12 11 11 11 11 11 11 12 12 12 13 12 9 7 8 8 8 10 14 16 17 17 18 19 19 19 21 22 21 20 20 19 19 19
28 34 35 36 37 37 36 36 35 34 34 34 34 34 33 32 31 32 33 34 35 35 35 37 38 39 38 37 36 35 34 33 31 30 28 27 25 24 23 23 24 23 22 22 21 21 19 18 16 14 13 11 11 11 12 12 13 13 14 14 13 14 14 12 9 8 9 9 10 13 15 17 18 18 19 21 21 23 23 23 23 22 21 20 19
25 31 34 35 36 37 36 35 34 34 34 34 35 34 34 33 32 32 34 35 35 35 36 38 38 38 38 37 36 35 34 33 31 30 28 26 25 24 24 24 24 23 22 22 21 20 19 17 15 13 12 11 11 12 13 14 15 15 15 16 15 15 15 15 14 11 9 10 11 14 16 18 19 20 21 22 23 23 24 25 24 24 23 22 20
27 30 33 34 35 36 35 34 34 34 35 35 35 35 34 33 33 33 34 34 34 35 36 38 39 38 38 37 36 35 34 34 32 30 28 26 25 25 25 25 23 22 22 21 20 18 17 15 13 11 10 11 12 13 15 16 16 17 17 17 17 17 17 17 17 15 13 13 13 14 17 20 21 22 23 23 22 23 23 23 24 24 24 23 23
29 31 32 34 35 35 35 35 35 35 35 35 35 35 35 34 33 33 34 34 34 35 37 38 39 39 38 37 37 36 35 34 33 31 29 28 27 26 25 24 23 22 22 20 18 16 15 12 11 10 10 12 13 15 16 18 18 19 19 19 19 19 19 19 18 18 17 16 15 15 17 18 20 21 22 22 22 21 19 18 20 22 23 24 23
30 31 33 34 35 36 36 36 36 36 35 36 36 35 35 34 34 33 33 34 34 36 37 38 39 39 38 38 37 37 36 34 32 31 30 29 28 27 26 24 23 23 21 19 18 15 13 11 11 11 11 13 14 16 17 19 20 20 21 21 21 20 21 20 19 19 18 17 17 17 16 17 19 20 21 22 22 21 19 17 17 17 17 20 21
31 31 33 34 35 36 37 37 37 36 35 36 35 35 35 34 34 33 33 34 35 37 38 39 40 40 39 39 38 37 36 34 33 32 30 29 29 28 27 25 23 22 21 19 17 15 13 12 12 13 14 14 15 17 18 19 20 21 22 23 23 22 22 21 19 18 17 17 18 17 14 15 18 20 20 19 19 20 18 15 16 16 15 18 20
31 31 32 33 34 36 37 37 37 35 35 34 34 34 34 34 33 33 34 35 36 37 38 39 40 40 39 38 37 36 36 35 34 33 31 31 30 28 26 25 23 22 21 20 17 14 13 13 14 15 15 16 16 18 19 19 21 23 24 25 25 24 24 23 21 19 17 17 19 17 13 14 18 18 17 17 17 18 15 14 17 19 17 19 21
30 30 31 32 33 34 35 35 35 35 34 34 34 34 34 33 33 33 34 34 34 35 36 37 39 40 39 39 38 37 36 35 33 33 32 31 30 29 27 26 24 23 21 19 16 14 15 16 17 17 17 17 18 20 21 21 22 24 26 27 28 27 27 27 26 24 22 22 23 19 13 17 23 21 19 21 20 18 17 15 17 18 16 17 19
28 29 30 31 32 33 33 33 34 34 34 34 34 33 32 32 32 33 33 33 34 34 35 37 38 39 40 41 40 39 37 35 34 34 33 32 30 29 28 27 25 23 20 18 16 16 17 19 19 20 20 20 21 22 22 23 24 25 27 28 30 30 30 30 30 29 28 29 31 25 19 25 31 25 22 24 20 18 19 17 16 15 14 15 16
29 28 28 29 31 32 32 32 33 34 34 34 33 32 31 31 31 32 33 34 34 34 36 37 38 39 39 40 39 38 37 36 35 34 32 31 30 29 27 26 24 22 20 18 18 19 20 21 22 22 23 23 24 24 24 25 26 27 28 30 31 32 33 33 33 33 33 34 34 32 29 32 35 31 28 26 20 17 18 17 16 17 15 15 17
28 27 27 29 30 30 31 32 32 33 33 32 32 31 31 31 32 32 33 33 33 33 33 35 36 36 36 36 35 36 35 34 33 32 31 30 29 27 25 24 22 21 20 20 21 21 22 23 24 25 25 25 26 27 27 28 28 29 31 32 33 35 36 36 35 35 36 36 36 38 38 37 37 36 34 29 23 18 17 18 18 17 16 17 19
27 28 28 29 29 30 30 31 31 32 31 30 30 30 30 31 31 31 31 31 31 30 31 32 34 35 35 34 34 35 35 34 34 32 31 30 28 26 25 23 22 22 22 22 23 23 24 25 26 28 27 27 28 30 31 32 32 32 34 34 35 37 38 37 37 37 37 38 39 42 44 41 40 41 37 31 28 25 23 23 22 19 19 20 21
27 27 28 28 28 29 29 29 30 30 30 29 29 28 28 29 29 29 29 29 30 30 30 31 32 33 32 32 33 34 34 34 34 32 31 30 28 27 25 24 23 23 23 24 25 26 26 26 27 29 29 29 30 31 33 35 35 35 36 37 38 39 39 39 39 39 39 40 42 46 48 46 43 42 38 33 32 30 27 26 26 24 22 22 24
25 25 26 27 27 28 29 29 29 29 29 28 28 27 27 27 27 27 27 28 28 28 28 29 29 30 30 30 31 32 33 33 32 32 30 29 27 26 25 24 23 23 24 26 28 28 28 28 28 30 31 32 32 33 34 35 36 37 38 40 41 42 43 44 42 41 42 43 46 48 49 48 46 43 41 37 34 29 24 23 23 20 18 18 20
23 23 25 26 27 28 28 29 29 28 28 28 27 27 27 27 27 27 26 26 27 27 27 27 27 28 28 29 29 30 30 30 30 29 28 27 26 25 24 23 23 24 26 28 29 31 32 31 31 32 33 34 33 33 34 35 36 37 38 40 41 43 47 48 44 44 45 45 47 48 46 44 41 38 37 35 30 24 19 20 20 15 13 15 16
21 23 25 26 27 28 28 29 28 27 27 27 27 27 27 26 27 26 26 26 26 26 25 25 25 25 26 27 27 27 27 26 27 26 25 24 24 23 23 22 23 25 27 29 31 33 34 34 34 34 35 35 34 34 34 35 36 38 38 39 41 44 49 49 45 47 47 44 45 46 44 42 38 34 33 31 29 26 23 27 27 17 13 16 17
22 25 25 25 26 27 27 27 27 27 27 27 26 26 26 26 25 25 25 25 24 24 24 23 23 23 23 24 24 24 23 23 23 23 22 22 22 22 22 23 24 26 28 29 31 33 36 36 35 34 34 34 34 34 35 35 37 39 39 39 42 48 51 48 45 46 45 43 43 43 43 44 41 38 35 32 30 30 29 32 35 26 21 23 20
23 24 24 24 25 25 25 26 26 26 26 25 25 25 25 25 24 24 24 24 23 23 23 23 23 22 21 21 22 22 22 21 21 21 20 21 22 23 23 24 26 27 28 29 29 31 34 35 33 32 32 33 34 35 35 34 36 39 39 40 44 49 49 46 43 42 41 41 41 39 39 40 37 36 35 33 31 31 29 31 37 37 35 34 28
22 22 22 22 23 23 24 24 24 24 24 24 23 24 23 23 24 24 24 23 22 23 23 22 22 21 21 21 21 21 21 21 20 20 20 22 23 24 25 27 27 27 28 27 25 26 30 33 33 33 33 33 33 33 34 34 33 35 38 40 42 42 40 38 38 36 36 38 39 37 36 36 35 33 33 34 35 34 32 33 37 40 41 41 34
20 20 20 21 21 22 23 23 22 22 23 22 22 23 22 22 23 23 23 23 22 22 22 21 21 20 20 20 20 21 21 20 21 22 22 24 25 26 27 28 28 28 28 27 25 27 31 34 34 33 31 31 31 31 31 31 29 29 32 34 34 32 30 29 28 25 25 28 31 34 35 33 32 33 34 34 36 36 34 35 38 40 42 43 40
18 18 19 19 20 21 21 21 21 21 21 21 21 22 22 21 21 21 22 21 21 20 20 20 20 19 19 20 20 20 20 20 21 22 23 24 25 26 27 27 27 26 27 26 27 30 32 31 30 30 28 28 29 28 28 27 26 27 28 29 29 30 29 29 28 26 25 24 25 29 31 27 25 30 34 35 35 35 34 34 35 38 39 41 42
17 18 18 19 19 20 20 20 20 20 20 20 21 21 21 21 21 20 20 20 19 18 18 19 19 18 18 19 19 19 20 20 21 21 22 23 24 25 26 25 23 23 23 21 21 24 24 22 24 26 25 24 24 24 23 23 24 25 27 27 28 29 29 28 28 27 28 27 25 27 29 28 26 29 33 35 35 34 33 31 31 34 37 38 40
18 18 19 19 19 19 19 19 19 19 19 20 20 21 21 21 20 19 19 19 19 18 18 18 18 18 18 18 18 19 20 20 20 20 20 20 20 20 20 20 19 20 20 19 19 19 19 18 20 21 20 19 19 20 20 21 21 21 23 24 25 25 25 26 25 24 26 27 26 26 28 29 29 29 30 31 31 29 27 27 29 32 34 36 38
19 19 19 19 19 19 19 19 18 18 18 18 19 19 19 20 20 19 19 19 18 17 17 18 18 17 16 16 16 17 17 16 16 15 15 15 15 14 14 15 17 18 19 20 20 20 20 20 20 21 20 20 20 21 22 23 23 24 24 25 26 26 25 25 24 24 25 25 25 27 29 29 30 30 28 27 27 25 23 24 27 30 32 33 34
21 21 20 20 20 19 20 20 19 18 19 19 18 18 18 19 20 20 20 19 17 15 15 16 16 15 14 14 14 14 13 12 11 11 10 11 11 11 11 12 14 15 17 18 18 19 19 20 20 19 20 20 20 20 21 21 22 21 20 18 19 21 23 23 23 24 26 26 26 29 31 29 28 28 27 26 25 24 23 23 25 28 29 30 29
21 21 21 21 20 20 20 20 20 20 20 19 18 18 18 18 18 19 19 19 18 16 15 15 15 15 14 12 11 11 10 9 8 7 7 8 8 8 9 10 11 12 13 14 15 16 17 17 18 18 19 19 19 19 18 19 20 19 17 16 15 16 18 19 21 23 25 26 28 29 29 27 24 25 26 26 25 25 24 23 24 26 27 25 24
21 21 21 21 21 21 20 20 21 21 20 19 18 17 16 16 16 15 14 14 13 12 12 13 13 11 10 9 8 7 6 5 5 5 5 6 6 7 7 8 8 9 10 10 12 14 14 13 14 14 15 15 15 14 14 15 15 15 16 16 16 14 14 15 17 18 19 21 23 24 24 23 22 22 25 26 25 25 23 21 22 23 22 22 22
22 21 21 22 22 21 21 21 20 21 21 20 18 15 13 11 11 10 9 9 9 8 8 8 9 8 8 7 6 5 4 4 4 4 4 4 5 5 6 6 7 9 9 10 11 13 13 12 11 10 10 10 11 11 11 11 12 12 12 13 13 13 13 13 15 16 17 19 20 20 22 23 22 23 24 25 25 23 21 21 21 20 20 21 19
24 23 22 22 22 21 21 21 21 21 21 20 19 17 15 11 8 8 7 7 8 7 6 6 6 6 6 6 6 5 5 4 4 3 3 3 3 4 5 6 7 9 9 10 12 14 14 15 16 15 14 13 12 11 10 10 11 11 12 12 13 13 12 12 13 14 16 17 19 19 18 19 21 21 22 23 24 21 19 20 20 19 20 21 16
25 24 23 22 21 21 21 21 21 21 21 20 19 20 19 16 12 9 8 8 8 7 7 6 6 6 5 6 6 5 4 4 3 2 2 3 3 4 5 6 6 7 8 9 11 12 11 12 12 11 11 10 10 9 9 9 9 10 11 11 12 12 11 11 12 14 15 15 16 16 15 15 18 20 20 21 21 18 16 17 18 18 20 20 17
24 24 23 23 22 21 21 21 21 21 22 21 21 21 21 19 17 15 14 12 11 10 10 9 8 7 5 5 5 5 4 4 3 3 3 4 6 7 6 5 5 6 6 7 8 9 9 9 9 8 8 8 8 9 10 10 11 11 12 12 12 12 13 13 13 14 15 14 14 14 14 15 18 19 18 18 18 16 14 13 13 15 16 16 15
24 24 24 24 23 22 22 22 21 21 21 21 21 21 20 20 20 21 19 15 12 11 10 10 9 8 7 6 5 4 4 4 4 4 4 5 6 6 5 5 6 6 7 7 9 9 9 11 11 10 10 10 11 11 12 12 13 13 13 13 14 14 15 15 14 13 13 13 13 12 12 14 16 17 16 15 14 13 13 10 8 10 11 11 11
24 24 23 22 22 22 21 21 21 21 21 21 20 20 19 18 20 20 19 17 16 14 13 11 10 9 8 7 5 4 4 4 4 5 5 5 5 5 4 4 5 5 6 8 10 10 8 7 8 8 8 8 9 10 10 11 11 12 12 13 14 15 16 15 13 11 11 12 12 11 11 12 14 14 14 13 11 11 10 9 7 8 9 8 9
24 24 23 21 21 21 21 21 20 20 20 20 19 18 18 17 18 18 17 17 18 17 15 12 10 9 8 7 6 5 4 4 3 4 4 4 4 4 3 4 4 4 4 6 8 9 8 6 5 6 8 8 7 7 8 9 10 12 13 13 14 15 15 13 11 11 12 11 11 11 10 11 11 10 10 11 11 10 10 9 8 8 8 8 9
23 24 23 22 21 21 21 20 19 18 18 19 18 18 18 18 18 17 17 17 17 16 15 13 11 9 8 7 7 6 4 4 3 3 3 2 2 2 2 4 4 5 5 6 7 8 9 8 7 8 10 10 9 9 10 10 12 13 14 14 15 15 15 13 12 13 14 12 10 10 10 10 10 9 9 9 9 9 10 9 8 8 9 9 10
23 23 23 22 22 22 22 21 20 19 19 19 19 19 19 19 18 17 17 17 16 14 14 13 11 11 10 8 7 6 5 4 3 2 2 2 1 1 2 2 3 4 5 7 7 7 8 9 9 10 11 11 12 12 13 13 13 13 14 14 14 14 14 13 12 13 13 11 10 9 9 9 9 9 9 9 9 9 9 9 9 9 9 8 9
23 23 23 22 22 22 22 22 22 21 21 20 19 19 19 19 18 17 17 16 15 14 13 12 11 11 10 9 8 7 5 4 4 3 3 2 2 2 2 2 3 4 5 6 7 7 8 9 10 10 11 11 11 11 12 12 12 12 12 12 13 12 12 12 12 13 12 12 11 11 11 11 11 10 10 9 9 9 9 9 9 9 9 9 9
25 24 23 22 22 22 21 21 21 21 20 20 19 19 18 18 17 17 16 16 15 14 13 12 11 10 9 8 7 7 6 5 4 3 3 3 3 3 3 3 4 5 5 6 6 7 7 8 8 8 8 9 9 9 10 10 10 10 10 10 11 12 12 11 11 12 12 12 13 13 13 13 13 12 11 9 8 9 9 9 9 9 8 9 9
26 25 23 22 22 22 21 21 20 19 19 19 18 17 17 16 16 15 15 14 14 13 12 12 10 9 7 5 5 4 4 4 3 3 3 3 4 4 5 5 5 5 5 5 6 6 6 6 6 7 7 7 8 8 9 9 10 10 10 10 11 12 11 11 11 11 12 12 13 13 13 14 14 13 12 11 10 10 9 8 8 9 9 9 9
25 25 24 23 22 22 21 21 20 19 18 18 17 17 16 16 15 15 14 13 13 13 12 11 10 9 8 6 5 4 3 3 3 3 4 4 5 5 5 5 5 5 6 6 6 6 6 6 6 7 7 8 8 9 9 9 10 10 11 11 11 12 11 11 11 11 11 12 13 12 13 13 13 14 13 13 12 12 10 10 11 10 10 9 9
23 24 24 22 21 21 20 20 20 19 18 18 17 16 16 15 15 14 14 13 12 11 10 10 9 8 8 7 6 5 4 4 5 5 5 5 5 6 6 6 7 7 6 6 7 7 7 7 7 8 8 8 9 9 10 10 10 11 12 12 12 12 12 11 11 11 12 13 13 12 13 13 13 14 15 15 14 14 14 13 13 12 11 10 9
23 23 23 22 21 20 19 19 19 19 18 17 17 16 15 14 14 14 13 12 11 10 9 9 8 8 7 6 6 6 6 6 6 6 6 6 6 6 7 7 8 8 8 8 8 8 9 9 9 9 9 10 10 10 10 11 11 12 13 13 14 13 12 12 11 12 13 13 13 13 13 14 14 14 15 15 15 15 14 14 14 13 12 10 9
22 22 23 22 22 21 20 19 18 18 18 17 16 16 15 14 13 13 11 10 10 9 9 8 8 7 7 6 6 6 6 6 6 6 7 7 7 7 8 8 9 9 9 9 10 10 10 10 11 11 11 10 11 11 12 12 13 13 14 14 15 14 13 12 12 13 13 14 14 14 15 15 15 15 15 15 15 15 14 14 13 13 13 12 10
21 21 22 22 22 21 20 19 18 17 17 16 16 16 15 13 12 11 10 9 9 8 8 8 7 7 7 7 7 7 7 7 7 8 8 8 8 9 9 10 10 10 10 11 12 12 12 12 12 13 13 12 12 13 13 13 13 14 14 15 15 15 14 14 14 14 14 14 14 15 15 16 16 16 16 16 15 15 15 15 14 13 13 13 12
20 20 20 20 20 20 19 18 17 16 15 15 14 14 13 12 11 10 9 8 8 8 8 7 7 7 7 7 8 8 8 8 9 9 9 9 9 10 10 11 12 12 12 12 13 13 13 14 14 14 15 14 14 14 14 14 14 14 15 15 15 15 15 15 15 15 14 14 15 15 16 16 16 16 16 16 15 15 15 15 15 14 13 13 13
18 19 18 18 18 18 18 17 16 15 15 14 13 12 11 10 9 9 8 8 7 7 7 7 7 7 7 8 8 9 9 10 10 10 10 11 11 11 12 12 13 13 14 14 14 14 15 15 15 16 16 16 16 16 15 15 14 15 15 15 15 15 16 16 16 15 15 15 16 16 16 16 16 16 15 15 15 15 15 14 14 14 13 13 13
17 17 17 17 16 16 16 15 14 13 13 12 11 11 10 9 8 7 7 7 7 7 6 7 7 7 8 9 9 10 11 11 12 12 12 12 13 13 13 14 15 15 16 16 16 16 17 17 17 18 18 18 17 17 16 16 15 15 15 15 16 16 17 17 17 16 15 16 16 16 16 16 16 15 14 14 13 13 13 14 13 13 13 14 13
15 14 14 14 14 13 13 13 12 11 11 10 9 9 8 7 7 6 6 6 6 6 7 7 8 9 10 10 11 12 12 13 13 13 14 14 14 14 15 16 16 17 18 18 18 18 18 19 19 19 19 18 18 18 17 17 16 16 16 16 17 17 18 18 17 16 16 16 16 16 16 15 15 14 13 12 11 11 11 12 12 12 13 14 14
14 13 13 12 12 12 11 11 10 10 9 8 7 7 6 6 6 6 6 6 6 7 8 9 9 11 12 12 13 13 14 15 15 16 16 16 16 16 17 18 18 19 20 20 20 20 20 19 19 19 19 19 19 18 18 18 18 17 18 18 18 18 18 18 17 17 16 15 15 15 15 15 14 13 12 12 12 12 12 11 10 11 11 12 13
Wind_Direction
207 209 214 216 217 218 219 221 222 224 225 224 225 225 223 222 223 224 221 218 214 209 206 205 205 205 203 202 201 200 199 198 196 196 195 194 194 194 193 192 194 194 194 195 197 199 200 200 200 198 197 200 202 205 211 215 217 222 226 228 231 234 229 227 247 257 258 263 263 263 267 270 273 278 281 284 288 291 294 297 298 299 299 297 298
211 213 214 216 218 219 220 221 223 223 223 222 223 222 221 222 225 225 223 220 217 213 209 206 205 204 202 201 200 199 199 198 197 196 195 195 194 194 195 196 197 196 195 196 198 199 202 203 204 202 203 207 210 216 224 228 231 235 236 237 238 243 241 235 243 255 258 268 273 272 274 276 274 276 280 284 288 292 295 297 297 296 293 291 293
213 216 215 216 218 219 220 221 222 222 220 220 220 220 220 223 225 225 223 220 218 215 212 209 205 203 202 200 199 199 199 198 197 197 197 197 196 196 198 200 201 198 197 198 200 201 202 204 206 208 210 214 221 228 235 240 242 243 244 246 245 249 253 247 242 252 261 265 267 268 273 276 277 278 282 287 291 293 295 296 295 293 292 291 290
211 215 215 216 218 218 218 219 220 219 219 219 219 218 221 223 225 224 221 219 216 212 211 209 205 203 201 200 200 200 199 199 199 199 199 199 198 199 201 203 203 201 200 202 203 203 205 207 210 215 219 226 235 242 248 250 250 250 252 254 253 254 259 257 251 252 261 265 264 265 269 273 278 281 285 289 292 292 294 294 294 293 293 293 291
212 214 213 214 216 216 217 217 217 218 219 219 219 220 221 223 223 223 221 218 214 211 209 207 205 203 202 201 201 200 201 201 200 199 198 198 200 202 204 204 204 204 204 206 206 207 209 213 218 225 234 244 251 256 259 259 259 259 259 260 260 260 262 263 260 255 254 259 263 267 272 276 280 283 287 290 290 291 291 291 292 293 293 293 291
213 212 211 213 214 215 216 216 217 218 219 219 220 221 222 222 222 221 220 218 214 212 210 207 205 204 203 203 203 202 202 202 201 200 198 199 201 204 206 206 206 207 206 207 208 210 213 218 227 237 246 255 260 265 267 267 266 266 265 265 265 265 265 265 264 259 256 258 263 266 269 275 280 284 288 287 286 286 285 285 286 287 289 291 291
212 212 212 212 213 215 216 218 219 219 220 220 220 221 221 222 221 220 219 217 214 212 210 208 207 206 205 205 205 204 203 202 201 201 200 201 203 205 206 207 209 209 209 208 209 211 215 221 232 242 251 259 264 269 270 271 271 272 271 269 268 267 267 265 263 260 257 258 263 264 266 271 277 280 282 282 282 280 276 276 278 279 281 284 284
212 212 213 212 212 215 217 219 221 221 221 222 221 220 221 221 221 220 218 216 215 215 213 212 209 206 206 206 205 205 204 202 202 202 202 204 206 207 208 209 210 211 211 211 211 213 218 226 236 245 252 257 263 268 270 272 275 275 274 272 269 268 266 263 260 258 256 258 261 264 265 269 274 277 277 275 274 274 271 266 269 273 275 275 274
212 211 212 212 213 214 216 219 220 222 221 220 219 219 220 221 221 219 218 217 216 216 215 213 209 206 205 206 206 206 205 204 205 204 204 206 207 209 210 211 213 213 212 212 211 215 222 231 241 249 253 256 260 265 268 270 272 274 275 273 271 268 265 261 258 256 256 258 261 262 260 263 268 269 265 261 261 267 268 259 264 274 277 273 271
210 210 211 213 214 214 215 216 217 218 218 218 217 218 219 219 218 217 217 217 215 213 212 210 208 205 204 205 205 206 206 206 208 208 209 210 210 210 212 214 215 215 215 213 213 219 228 236 246 252 254 255 257 260 263 265 267 271 273 273 271 269 266 262 258 257 256 258 261 260 253 261 267 264 260 263 263 264 264 258 264 274 274 272 272
209 210 211 212 213 214 213 213 213 214 215 216 216 217 217 216 215 215 214 213 212 211 211 210 209 207 205 205 205 206 207 208 210 211 212 213 213 213 214 215 215 215 215 214 217 225 232 239 247 253 256 257 259 261 262 262 265 269 271 272 272 270 267 262 260 259 258 259 262 261 254 263 269 266 263 267 265 259 259 258 259 263 262 266 272
209 210 210 211 212 211 210 210 211 212 213 214 214 215 215 213 211 210 210 210 211 212 212 212 210 208 207 206 206 206 207 209 211 212 212 213 214 215 216 216 216 216 216 218 225 233 238 242 246 251 256 259 262 266 267 266 267 269 272 274 274 273 270 265 261 261 261 260 261 262 260 264 269 268 264 264 261 256 258 256 250 252 254 258 267
208 209 208 210 209 208 208 208 208 209 211 212 212 212 211 209 209 209 209 210 211 210 210 209 208 208 208 207 207 207 208 209 211 212 213 214 215 215 217 218 219 220 221 224 232 240 245 246 247 249 254 258 262 266 271 274 273 273 274 274 274 275 275 271 266 264 264 262 260 264 267 265 266 268 268 266 261 254 250 249 245 246 249 253 264
206 207 208 208 207 206 206 206 206 207 208 208 207 207 207 207 209 209 208 207 207 207 208 208 209 209 209 208 208 208 208 210 212 213 214 216 216 217 218 219 221 224 227 231 238 246 252 253 252 252 253 256 260 264 270 275 277 276 276 274 274 275 274 272 270 268 266 263 261 266 272 270 267 270 271 266 263 259 252 251 249 246 250 257 267
204 206 205 205 204 204 204 203 203 204 205 205 205 205 205 206 206 206 205 205 206 207 208 208 208 208 208 208 208 209 209 211 213 215 216 216 217 216 216 218 222 226 231 237 242 250 257 260 259 258 257 257 259 262 267 272 275 276 275 274 274 274 272 270 270 270 268 266 266 270 274 274 271 272 271 266 265 264 258 258 259 256 258 264 269
200 202 202 202 202 202 202 201 201 202 202 203 203 203 203 203 204 204 203 205 207 208 208 207 207 207 207 207 208 210 211 212 213 216 217 216 215 214 215 219 225 229 235 241 245 253 262 265 264 264 265 263 262 264 267 271 273 273 273 274 274 273 273 272 270 270 269 269 270 272 274 275 273 272 271 269 267 263 259 259 258 252 253 261 266
196 198 199 200 201 201 201 200 199 199 200 200 201 203 204 203 203 203 201 202 204 206 206 207 207 207 207 206 207 210 212 211 212 214 214 212 213 214 216 221 227 234 241 245 249 257 264 267 268 268 269 269 269 269 270 271 271 271 270 272 273 273 274 275 273 272 272 271 271 270 270 271 270 269 270 267 261 256 251 251 249 237 237 251 257
193 196 197 199 199 199 201 200 198 197 198 199 201 202 203 202 203 203 202 201 202 203 204 205 206 208 209 208 209 210 211 210 211 212 212 211 213 216 220 225 232 239 245 249 255 262 267 270 270 269 268 270 272 274 273 271 270 269 269 270 272 272 274 275 275 277 276 274 272 269 267 265 264 263 263 261 257 252 244 246 248 236 224 239 248
192 195 197 198 199 199 199 198 198 197 198 199 201 202 202 202 202 202 202 203 202 202 203 204 205 208 211 212 212 213 214 213 213 213 213 213 216 220 224 229 236 243 249 254 260 266 271 274 273 269 270 273 275 276 275 271 270 270 270 268 268 271 274 276 277 278 278 276 274 273 271 270 267 264 262 260 259 256 249 250 252 244 235 242 245
193 194 195 195 196 197 196 196 197 199 199 198 200 201 201 200 199 198 200 202 203 202 202 204 205 207 208 210 212 213 212 212 213 215 217 219 222 225 226 231 239 246 252 259 263 267 270 273 272 272 274 278 279 279 278 274 272 273 271 266 265 272 279 280 279 278 278 277 277 277 276 276 274 270 267 263 261 258 253 252 253 249 248 249 246
189 189 190 191 192 193 194 196 198 198 199 198 197 198 199 200 198 197 197 198 198 199 200 201 204 206 207 208 209 210 210 209 210 214 219 223 226 227 229 233 241 249 256 260 261 263 266 270 273 277 279 279 279 279 279 277 274 272 270 268 270 277 282 282 281 281 279 278 279 278 278 278 276 273 270 268 267 264 257 253 252 251 251 250 247
183 184 186 187 188 189 192 195 196 195 196 196 194 193 195 198 198 196 195 193 193 195 197 199 203 205 208 211 212 213 214 213 213 217 221 224 226 227 231 239 247 254 259 260 261 265 270 274 277 280 280 280 280 280 281 280 274 269 269 271 275 280 281 280 281 279 276 276 275 274 275 274 273 272 270 269 270 268 264 259 255 253 253 252 250
176 178 180 180 183 186 188 190 192 192 192 192 191 189 189 191 193 193 192 191 190 192 194 197 200 202 206 211 215 218 220 219 219 221 223 224 226 230 237 245 251 255 258 261 265 271 275 277 279 281 283 283 284 284 283 280 274 270 272 276 279 281 282 281 280 277 273 272 269 268 270 268 266 268 270 271 272 272 270 265 257 254 255 255 253
168 169 173 176 179 181 183 185 187 188 187 186 185 184 184 185 187 189 191 190 188 189 191 194 196 198 203 209 214 217 220 221 223 224 226 229 232 238 244 249 252 254 256 261 267 273 275 277 281 286 288 287 286 285 283 280 277 277 278 280 281 282 282 279 278 277 275 271 266 266 269 267 264 268 273 276 278 279 275 266 256 254 256 256 255
163 166 169 172 175 177 178 180 182 183 183 182 181 181 181 181 182 185 188 188 187 187 189 192 195 199 204 210 215 219 222 225 228 231 233 236 240 243 248 253 254 254 256 260 266 271 275 280 285 289 289 287 286 286 285 284 283 282 282 283 283 282 280 277 275 273 272 270 268 269 273 275 276 279 282 283 283 281 274 262 253 253 255 255 255
161 165 166 168 171 172 171 172 175 178 180 181 182 182 181 181 181 182 183 185 186 187 190 193 197 202 207 210 216 222 226 229 231 234 235 239 243 245 248 252 255 255 257 261 267 272 277 282 285 286 287 287 287 288 288 288 288 288 287 286 282 279 277 275 272 270 269 270 271 272 275 279 282 283 283 282 281 279 272 260 253 253 255 255 254
161 163 164 164 167 169 168 168 170 173 176 178 181 182 183 183 183 181 182 184 185 187 191 196 199 203 208 211 215 221 225 228 232 236 238 241 247 250 252 254 256 258 261 267 272 277 282 285 287 289 292 295 297 299 300 301 303 303 300 292 284 280 278 275 273 274 274 274 275 276 278 280 281 280 279 279 279 278 273 265 257 256 257 256 253
161 161 163 163 165 168 170 170 169 171 174 176 179 180 181 184 186 187 189 192 193 194 197 200 202 205 207 209 210 212 218 227 235 240 240 242 245 248 253 257 260 262 267 274 281 288 293 296 299 303 306 309 311 311 311 311 310 309 307 304 298 292 286 280 277 277 279 281 282 284 285 286 284 283 283 284 282 280 277 270 262 259 259 254 249
160 161 162 164 166 168 171 171 171 171 171 173 175 178 182 187 190 193 197 198 197 199 201 204 208 209 208 210 208 201 205 226 239 238 237 242 249 253 257 263 268 273 282 294 301 303 303 303 305 307 308 307 306 303 301 299 296 295 298 302 300 292 282 276 273 274 277 281 283 286 287 287 285 283 284 285 284 282 280 274 265 261 258 250 245
159 161 163 166 167 168 170 171 172 172 171 170 170 169 171 181 188 190 190 187 187 190 193 196 202 202 199 202 200 189 188 206 226 239 246 250 257 263 268 278 288 295 304 310 303 294 289 288 290 291 290 287 285 281 278 278 280 281 283 287 289 286 279 274 273 275 279 281 283 285 286 286 285 285 285 285 285 283 281 277 270 263 254 247 243
160 162 166 168 169 170 172 172 172 173 172 171 166 155 146 144 156 167 168 166 174 184 187 186 186 183 181 185 186 191 205 214 220 233 244 247 257 267 272 279 286 291 297 295 286 277 275 277 279 279 279 280 279 279 278 275 276 280 283 285 286 285 282 277 275 280 285 286 286 285 284 284 284 285 285 285 284 283 280 276 271 262 253 247 244
164 164 167 169 170 172 174 173 173 174 172 169 166 158 146 133 122 121 127 134 143 149 146 143 145 152 166 178 180 186 198 201 192 185 196 219 235 245 254 266 276 283 286 282 278 277 277 278 281 283 283 284 288 293 294 292 291 292 296 299 299 298 295 291 288 289 290 289 288 286 283 283 284 284 285 285 284 281 276 271 268 262 255 250 248
166 165 167 168 169 171 174 173 173 174 172 170 169 165 159 147 131 121 120 127 136 140 139 139 142 145 154 163 167 174 184 188 186 187 206 226 230 233 245 261 270 277 279 269 267 274 280 284 292 300 300 300 304 305 305 306 307 308 308 308 308 307 304 302 301 298 294 291 289 287 285 285 285 285 285 285 282 278 273 268 264 261 257 251 250
168 166 168 169 169 171 173 174 174 174 174 174 173 170 167 161 151 142 138 139 143 144 145 148 151 153 157 160 163 172 183 190 198 207 223 242 244 245 255 255 242 248 259 257 258 268 277 282 287 293 297 300 303 304 306 307 307 308 307 305 304 304 303 303 304 302 299 295 292 289 288 288 288 286 285 284 281 276 273 267 259 257 254 251 253
168 166 167 169 170 170 172 174 175 175 176 176 176 174 172 168 164 160 158 157 155 151 148 150 154 157 158 151 147 158 175 186 203 217 233 258 268 265 264 252 235 238 251 256 259 265 271 280 287 288 292 299 302 302 305 307 307 307 306 305 305 306 306 309 311 308 306 303 298 295 295 294 291 289 286 284 280 277 275 272 266 261 260 259 262
166 163 163 167 169 169 170 172 174 175 176 176 176 176 173 170 169 169 169 167 163 157 154 154 155 158 160 155 149 158 184 202 218 237 251 264 272 265 245 225 217 217 229 244 254 261 264 269 280 282 284 290 296 296 299 301 301 302 303 303 304 305 307 312 314 311 309 309 306 305 306 303 299 297 294 290 287 285 284 284 280 276 273 273 274
163 161 161 164 166 165 165 167 168 169 170 169 169 169 168 167 168 167 165 165 163 160 158 157 155 154 159 165 167 170 184 206 225 247 263 271 272 250 223 216 217 221 232 246 255 260 261 263 269 276 281 285 289 291 294 297 298 300 302 303 304 306 307 309 308 305 306 308 309 310 311 308 306 305 301 297 297 295 293 293 292 289 285 281 279
159 158 158 161 162 162 161 160 161 162 162 161 162 163 161 161 163 162 160 161 161 160 160 160 161 160 161 168 178 182 189 207 222 234 249 253 248 236 226 228 233 234 240 249 254 256 258 261 267 274 279 283 286 289 293 296 299 302 305 307 308 311 314 314 312 309 310 312 312 312 311 309 308 308 304 299 298 298 298 298 297 297 295 289 283
154 154 156 159 160 161 160 159 158 159 159 158 159 160 159 158 159 159 159 159 158 159 159 160 164 169 171 175 181 181 180 188 200 209 222 231 243 253 249 247 248 247 249 255 258 261 264 267 272 277 280 283 287 290 293 297 301 304 307 309 312 316 319 319 318 317 317 316 314 313 311 309 306 305 303 300 297 298 300 300 298 298 297 294 290
153 153 156 159 159 159 159 159 158 159 159 158 158 159 159 158 158 158 159 158 157 159 161 162 167 172 175 178 180 175 174 186 201 213 233 254 270 278 272 263 257 255 257 259 260 264 269 271 273 277 280 281 284 287 291 296 300 304 306 308 309 312 315 317 316 316 316 315 313 312 311 309 309 308 305 301 299 299 299 299 299 298 294 292 290
156 155 156 159 159 158 157 157 157 158 158 157 157 157 157 156 156 157 158 159 161 161 163 167 172 170 165 173 188 186 185 201 217 225 245 261 269 273 272 269 266 263 262 263 264 264 265 268 271 275 278 280 283 286 290 294 297 299 302 303 303 305 309 311 310 309 308 307 308 309 308 307 308 308 305 302 301 302 300 299 299 297 293 291 290
159 156 155 157 159 159 157 156 155 155 155 154 154 155 156 155 155 157 158 160 163 164 165 171 177 175 169 181 207 222 230 241 248 253 258 259 260 264 265 266 268 267 264 263 263 263 265 268 271 274 276 277 279 282 285 289 292 294 295 297 299 301 304 307 307 304 302 301 302 304 304 304 303 302 300 299 300 301 300 299 301 300 295 291 290
158 156 155 156 158 158 157 155 154 153 154 154 153 154 155 155 156 158 160 160 163 168 172 177 183 188 191 202 222 241 253 257 258 260 259 254 254 257 260 261 263 264 264 266 268 270 273 274 274 276 277 277 277 279 282 285 287 289 291 294 296 298 302 305 305 302 299 299 300 300 300 300 299 298 298 299 300 301 301 302 304 302 297 292 292
156 155 153 153 155 156 155 154 154 154 154 154 154 153 155 156 158 159 162 163 166 173 181 186 191 200 210 221 233 243 250 253 254 253 253 252 253 255 258 261 263 265 268 272 273 274 276 278 278 278 278 276 276 278 281 283 285 287 289 291 294 297 301 303 302 300 298 298 300 301 300 299 299 299 300 301 302 303 304 303 303 303 299 294 293
158 156 154 153 154 155 154 154 156 156 155 155 155 154 156 160 162 162 164 167 172 180 189 196 202 209 218 229 237 243 247 251 250 250 250 252 255 256 258 262 265 268 271 274 275 276 277 279 279 279 279 278 278 279 280 283 284 285 287 289 292 296 299 299 296 295 295 296 297 298 297 297 297 298 299 300 300 301 301 299 298 298 297 294 291
158 157 156 156 156 156 156 156 158 158 158 159 159 159 161 164 165 164 166 172 180 188 196 203 210 218 226 234 239 243 247 248 249 251 254 255 256 260 262 265 267 270 272 272 273 274 276 277 279 281 281 280 279 279 279 280 280 281 284 286 289 292 295 295 293 293 293 294 294 293 293 294 294 294 295 296 296 296 296 296 295 293 293 292 290
157 157 157 158 158 157 157 158 159 159 160 162 163 164 165 165 165 166 171 177 186 196 204 211 217 224 231 237 240 243 247 249 251 254 257 259 261 262 264 267 269 270 271 271 272 274 276 278 279 281 282 282 281 279 278 277 277 278 279 282 285 288 291 291 289 290 291 290 289 289 289 290 291 291 291 292 293 293 294 295 295 294 293 292 290
156 156 157 159 159 159 159 160 161 162 163 164 166 167 166 165 166 170 177 185 194 203 211 219 226 232 238 242 244 247 250 253 257 259 261 264 265 266 267 269 271 271 272 273 273 274 277 278 280 280 281 280 280 279 277 276 275 274 276 278 281 283 285 285 286 287 288 287 286 285 285 285 286 287 287 288 289 290 290 290 290 291 292 291 289
156 157 158 159 160 161 161 161 162 164 165 166 168 168 167 168 173 178 185 196 206 215 224 231 237 242 246 248 250 253 256 259 262 265 266 266 267 268 269 271 272 273 274 275 276 276 277 278 279 279 279 279 278 278 277 275 274 273 274 276 277 279 280 281 283 283 283 282 281 281 281 281 282 283 284 285 286 287 287 287 288 288 288 287 286
155 156 157 157 158 159 159 159 161 164 166 168 170 171 171 176 182 190 202 213 220 229 237 243 247 251 254 257 258 260 263 265 266 268 269 269 270 272 273 273 274 276 276 277 277 277 277 276 276 276 276 276 275 274 274 273 272 272 272 274 276 277 279 280 281 282 281 280 279 277 276 276 277 278 280 283 285 285 286 289 290 289 287 285 284
152 153 154 155 156 157 158 160 163 166 169 172 175 177 181 189 200 212 224 232 239 246 251 255 258 259 261 264 266 266 268 270 271 271 272 273 274 275 275 275 276 276 276 276 277 276 275 275 275 273 272 272 271 271 271 271 271 272 274 275 276 278 279 279 280 279 276 273 272 271 270 270 272 274 276 280 283 285 287 289 291 292 290 287 284